Location: Lake Zurich
(42.1970°N, 88.0930°W)
Time: 19:51:45
(UTC-05:00)

Amateur Radio Satellites - All Passes

Search period start: 26 July 2017 19:21
Search period end: 27 July 2017 19:21
Location: Lake Zurich, 42.1970°N, 88.0930°W

Satellite Date Start Highest point End Downlink Frequencies (MHz)
Time Altitude Azimuth
HO-68 26 Jul 19:27:01 19:34:13 81° 254° (WSW) 19:41:26 435.675
NUDT-PHONESAT 26 Jul 19:28:54 19:30:59 14° 268° (W) 19:33:03 437.300
XW-2C 26 Jul 19:29:17 19:30:29 11° 269° (W) 19:31:42 145.795 - 145.815
NO-84 26 Jul 19:32:18 19:33:35 11° 236° (SW) 19:34:52 435.350 FM
AAUSAT CUBESAT 2 26 Jul 19:37:24 19:41:09 36° 71° (ENE) 19:44:57 437.432
UWE-3 26 Jul 19:41:42 19:46:02 44° 72° (ENE) 19:50:17 435.000/436.395/437.385
BEESAT 3 26 Jul 19:48:31 19:50:41 14° 40° (NE) 19:52:48 437.485
ZACube-1 26 Jul 19:51:51 19:55:45 31° 70° (ENE) 19:59:36 437.345
Tancredo 1 26 Jul 19:52:44 19:55:39 72° 145° (SE) 19:58:35 437.200
ISS 26 Jul 19:55:48 19:58:34 26° 136° (SE) 20:01:21 437.550
AO-85 26 Jul 20:04:20 20:07:28 20° 45° (NE) 20:10:44 145.980
YUBILEINY 26 Jul 20:07:38 20:15:59 45° 287° (WNW) 20:24:22 435.215
CUTE-I 26 Jul 20:08:09 20:09:21 11° 272° (W) 20:10:35 437.470
Oscar 11 26 Jul 20:14:39 20:18:35 37° 71° (ENE) 20:22:33 .
XW-2A 26 Jul 20:17:23 20:20:17 26° 263° (W) 20:23:11 145.665 - 145.685
CUBEBUG 2 26 Jul 20:23:50 20:28:15 39° 263° (W) 20:32:34 437.445
DELFI C3 26 Jul 20:25:53 20:27:17 12° 63° (ENE) 20:28:41 145.870
CUTE 1.7 + AOD 2 26 Jul 20:27:12 20:30:06 18° 268° (W) 20:33:00 437.475
AO-73 26 Jul 20:30:23 20:34:47 74° 75° (ENE) 20:39:06 145.935
BEESAT 2 26 Jul 20:32:25 20:34:39 14° 40° (NE) 20:36:51 435.950
SEEDS 26 Jul 20:35:24 20:38:40 22° 266° (W) 20:41:58 437.485
nSIGHT-1 26 Jul 20:35:45 20:38:57 69° 143° (SE) 20:42:10 .
STRAND 1 26 Jul 20:39:05 20:44:13 77° 285° (WNW) 20:49:18 437.568
AAUSAT CUBESAT 2 26 Jul 21:13:52 21:16:43 18° 267° (W) 21:19:36 437.432
UWE-3 26 Jul 21:19:34 21:22:40 18° 268° (W) 21:25:44 435.000/436.395/437.385
HO-68 26 Jul 21:19:36 21:22:57 14° 273° (W) 21:26:20 435.675
BEESAT 3 26 Jul 21:24:45 21:28:46 78° 238° (WSW) 21:32:42 437.485
RS-15 26 Jul 21:28:02 21:37:47 26° 12° (NNE) 21:47:16 29.354- 29.394
ZACube-1 26 Jul 21:28:28 21:32:03 24° 265° (W) 21:35:36 437.345
Tancredo 1 26 Jul 21:29:00 21:31:18 20° 341° (NNW) 21:33:37 437.200
ISS 26 Jul 21:31:51 21:34:56 40° 333° (NNW) 21:38:02 437.550
AO-85 26 Jul 21:43:58 21:48:05 51° 241° (WSW) 21:52:29 145.980
TIGRISAT 26 Jul 21:47:47 21:49:51 13° 90° (E) 21:51:54 435.000
FO-29 26 Jul 21:51:33 21:58:05 40° 95° (E) 22:03:52 435.910
Oscar 11 26 Jul 21:51:42 21:54:50 20° 267° (W) 21:57:59 .
EO-88 26 Jul 21:56:52 22:00:30 83° 77° (ENE) 22:04:09 145.990 - 145.960
DELFI C3 26 Jul 21:57:39 22:01:32 59° 259° (W) 22:05:28 145.870
LO-87 26 Jul 21:57:57 21:58:48 11° 64° (ENE) 21:59:39 145.935 - 145.965
PRISM 26 Jul 22:02:12 22:04:54 17° 93° (E) 22:07:35 437.425
BEESAT 2 26 Jul 22:08:51 22:12:55 79° 238° (WSW) 22:16:56 435.950
nSIGHT-1 26 Jul 22:12:56 22:15:37 23° 341° (NNW) 22:18:18 .
STRAND 1 26 Jul 22:21:34 22:22:29 10° 304° (WNW) 22:23:24 437.568
UNISAT 6 26 Jul 22:38:56 22:43:10 53° 100° (E) 22:47:20 437.425
M-CUBED/EXP-1 PRIME 26 Jul 22:46:53 22:50:21 20° 98° (E) 22:53:49 437.505
Tancredo 1 26 Jul 23:05:58 23:07:31 13° 2° (N) 23:09:03 437.200
ISS 26 Jul 23:09:52 23:12:03 16° 352° (N) 23:14:15 437.550
ESTCUBE 1 26 Jul 23:13:48 23:18:10 56° 73° (ENE) 23:22:34 437.505/2401.250
TIGRISAT 26 Jul 23:22:41 23:26:54 54° 287° (WNW) 23:31:02 435.000
LO-87 26 Jul 23:28:10 23:31:45 54° 261° (W) 23:35:20 145.935 - 145.965
PRISM 26 Jul 23:36:24 23:40:21 41° 289° (WNW) 23:44:16 437.425
FO-29 26 Jul 23:36:37 23:43:02 38° 296° (WNW) 23:48:47 435.910
RS-15 26 Jul 23:42:17 23:54:08 52° 44° (NE) 00:05:21 29.354- 29.394
nSIGHT-1 26 Jul 23:50:50 23:52:51 15° 1° (N) 23:54:52 .
VELOX 1 26 Jul 23:51:14 23:55:09 32° 69° (ENE) 23:59:06 145.980
DX 1 26 Jul 23:53:23 23:54:32 11° 60° (ENE) 23:55:42 434.975-435.025
AIST 2D 26 Jul 23:57:09 00:00:32 48° 99° (E) 00:03:56 435.315
DUCHIFAT 1 27 Jul 00:09:32 00:12:50 22° 94° (E) 00:16:06 145.980
50 SAT 27 Jul 00:13:44 00:16:08 18° 68° (ENE) 00:18:33 437.505
POLYITAN 1 27 Jul 00:14:44 00:18:31 32° 97° (E) 00:22:16 437.675
UNISAT 6 27 Jul 00:17:02 00:19:26 15° 297° (WNW) 00:21:48 437.425
M-CUBED/EXP-1 PRIME 27 Jul 00:20:28 00:24:53 45° 294° (WNW) 00:29:19 437.505
SPROUT 27 Jul 00:26:21 00:30:39 87° 81° (E) 00:34:59 437.525
QB50P2 27 Jul 00:27:41 00:31:48 50° 100° (E) 00:35:52 145.880/145.840
UKube-1 27 Jul 00:29:53 00:32:45 18° 64° (ENE) 00:35:38 .
BUGSAT 1 27 Jul 00:32:26 00:33:10 10° 89° (E) 00:33:53 437.445
NANOSAT C BR1 27 Jul 00:37:40 00:41:47 52° 100° (E) 00:45:51 145.865
O/OREOS (USA 219) 27 Jul 00:37:55 00:42:19 51° 64° (ENE) 00:46:43 437.305
EO-79 27 Jul 00:38:57 00:43:08 61° 101° (E) 00:47:16 145.935-145.965
Tancredo 1 27 Jul 00:41:10 00:43:40 24° 21° (NNE) 00:46:10 437.200
ISS 27 Jul 00:47:01 00:49:26 19° 13° (NNE) 00:51:51 437.550
ESTCUBE 1 27 Jul 00:52:59 00:55:19 14° 269° (W) 00:57:41 437.505/2401.250
Oscar 19 27 Jul 01:03:23 01:05:16 12° 89° (E) 01:07:09 437.125/150
DX 1 27 Jul 01:25:42 01:30:04 80° 258° (WSW) 01:34:27 434.975-435.025
nSIGHT-1 27 Jul 01:27:13 01:30:03 27° 22° (NNE) 01:32:52 .
VELOX 1 27 Jul 01:27:59 01:31:37 24° 265° (W) 01:35:15 145.980
AIST 2D 27 Jul 01:32:27 01:33:19 11° 295° (WNW) 01:34:11 435.315
Gurwin Techsat 1B 27 Jul 01:44:17 01:48:07 20° 92° (E) 01:51:56 435.225
DUCHIFAT 1 27 Jul 01:44:50 01:48:31 30° 291° (WNW) 01:52:10 145.980
50 SAT 27 Jul 01:45:51 01:48:41 25° 264° (W) 01:51:34 437.505
POLYITAN 1 27 Jul 01:50:52 01:54:07 22° 293° (WNW) 01:57:21 437.675
RS-15 27 Jul 01:55:15 02:06:45 55° 249° (WSW) 02:17:41 29.354- 29.394
MOZHAYETS 4 27 Jul 01:57:29 01:59:07 12° 60° (ENE) 02:00:45
UKube-1 27 Jul 02:04:17 02:08:25 45° 261° (W) 02:12:36 .
QB50P2 27 Jul 02:04:43 02:07:10 15° 296° (WNW) 02:09:36 145.880/145.840
BUGSAT 1 27 Jul 02:04:53 02:08:57 62° 286° (WNW) 02:12:56 437.445
NANOSAT C BR1 27 Jul 02:14:45 02:17:02 14° 297° (WNW) 02:19:18 145.865
Tancredo 1 27 Jul 02:16:20 02:19:11 48° 219° (SW) 02:22:03 437.200
EO-79 27 Jul 02:16:29 02:18:22 13° 298° (WNW) 02:20:14 145.935-145.965
O/OREOS (USA 219) 27 Jul 02:18:38 02:21:17 16° 260° (W) 02:23:56 437.305
ISS 27 Jul 02:23:08 02:26:23 65° 32° (NNE) 02:29:37 437.550
AO-7 27 Jul 02:33:50 02:34:22 10° 85° (E) 02:34:55 .
Oscar 19 27 Jul 02:39:59 02:45:11 83° 285° (WNW) 02:50:22 437.125/150
BEESAT 27 Jul 02:49:02 02:53:41 54° 72° (ENE) 02:58:21 436.000
ITAMSAT 1 27 Jul 03:00:18 03:01:17 10° 88° (E) 03:02:17 435.822/435.867
nSIGHT-1 27 Jul 03:03:26 03:06:35 50° 219° (SW) 03:09:42 .
ITUPSAT 1 27 Jul 03:03:36 03:08:22 74° 74° (ENE) 03:13:10 437.325
Gurwin Techsat 1B 27 Jul 03:23:11 03:28:22 53° 289° (WNW) 03:33:31 435.225
MOZHAYETS 4 27 Jul 03:31:02 03:35:37 79° 259° (WSW) 03:40:12
KKS-1 27 Jul 03:57:32 04:01:00 22° 65° (ENE) 04:04:29 437.445
ISS 27 Jul 04:00:32 04:02:31 15° 228° (SW) 04:04:29 437.550
CUBESAT XI-V 27 Jul 04:11:28 04:15:56 53° 73° (ENE) 04:20:25 437.345
PCSat 27 Jul 04:15:05 04:19:56 35° 110° (ESE) 04:24:48 145.827
AO-7 27 Jul 04:20:27 04:28:45 62° 104° (ESE) 04:36:57 .
YUBILEINY 27 Jul 04:21:07 04:27:21 21° 62° (ENE) 04:33:31 435.215
STARS 27 Jul 04:21:45 04:24:38 17° 64° (ENE) 04:27:32 437.465
Oscar 19 27 Jul 04:22:00 04:23:40 12° 303° (WNW) 04:25:20 437.125/150
BEESAT 27 Jul 04:28:47 04:31:46 16° 268° (W) 04:34:46 436.000
ITAMSAT 1 27 Jul 04:36:13 04:41:28 90° 120° (ESE) 04:46:38 435.822/435.867
ITUPSAT 1 27 Jul 04:44:57 04:46:42 12° 271° (W) 04:48:26 437.325
SO-50 27 Jul 04:49:15 04:50:57 12° 108° (ESE) 04:52:40 436.795
KKS-1 27 Jul 05:33:11 05:37:19 37° 262° (W) 05:41:30 437.445
CUBESAT XI-V 27 Jul 05:50:55 05:53:37 15° 269° (W) 05:56:21 437.345
LilacSat-2 27 Jul 05:52:22 05:53:31 11° 90° (E) 05:54:39 437.200
DOVE 4 27 Jul 05:56:15 06:01:15 42° 97° (E) 06:06:00 437.250
STARS 27 Jul 05:56:17 06:00:35 48° 260° (W) 06:04:54 437.465
PCSat 27 Jul 05:58:17 06:03:16 36° 309° (NW) 06:08:17 145.827
XW-2F 27 Jul 06:01:46 06:03:32 13° 91° (E) 06:05:18 145.980 - 146.000
AO-7 27 Jul 06:13:52 06:21:01 33° 303° (WNW) 06:28:08 .
YUBILEINY 27 Jul 06:16:34 06:25:22 87° 264° (W) 06:34:05 435.215
ITAMSAT 1 27 Jul 06:17:54 06:20:08 13° 302° (WNW) 06:22:23 435.822/435.867
STRAND 1 27 Jul 06:17:55 06:21:42 21° 63° (ENE) 06:25:29 437.568
SO-50 27 Jul 06:26:15 06:30:47 76° 304° (WNW) 06:35:19 436.795
XW-2D 27 Jul 06:30:51 06:34:15 31° 97° (E) 06:37:38 145.860 - 145.880
CUTE-I 27 Jul 06:40:01 06:44:56 36° 97° (E) 06:49:48 437.470
XW-2B 27 Jul 06:40:51 06:44:25 40° 98° (E) 06:48:00 145.730 - 145.750
HO-68 27 Jul 06:55:39 07:00:27 19° 90° (E) 07:05:13 435.675
NUDT-PHONESAT 27 Jul 06:56:43 07:00:17 47° 99° (E) 07:03:50 437.300
XW-2C 27 Jul 06:58:11 07:01:57 69° 101° (E) 07:05:43 145.795 - 145.815
KAITUO 1B 27 Jul 07:14:28 07:18:12 84° 103° (ESE) 07:21:57 145.475/437.950
LilacSat-2 27 Jul 07:24:23 07:28:04 51° 286° (WNW) 07:31:45 437.200
XW-2F 27 Jul 07:34:18 07:37:53 42° 287° (WNW) 07:41:27 145.980 - 146.000
DOVE 4 27 Jul 07:34:22 07:38:38 25° 295° (WNW) 07:42:44 437.250
XW-2A 27 Jul 07:38:57 07:41:02 15° 93° (E) 07:43:05 145.665 - 145.685
STRAND 1 27 Jul 07:55:29 08:00:29 51° 260° (W) 08:05:31 437.568
FO-29 27 Jul 08:03:31 08:09:25 24° 58° (ENE) 08:15:20 435.910
XW-2D 27 Jul 08:05:36 08:08:12 18° 293° (WNW) 08:10:48 145.860 - 145.880
CUTE 1.7 + AOD 2 27 Jul 08:09:42 08:13:57 73° 102° (ESE) 08:18:13 437.475
SO-50 27 Jul 08:09:48 08:12:01 13° 324° (NW) 08:14:14 436.795
CUBEBUG 2 27 Jul 08:14:05 08:18:05 39° 98° (E) 08:21:58 437.445
YUBILEINY 27 Jul 08:15:40 08:20:47 17° 284° (WNW) 08:25:53 435.215
XW-2B 27 Jul 08:16:08 08:18:16 15° 294° (WNW) 08:20:25 145.730 - 145.750
SEEDS 27 Jul 08:17:21 08:21:31 55° 100° (E) 08:25:40 437.485
AO-73 27 Jul 08:19:36 08:21:23 12° 90° (E) 08:23:09 145.935
CUTE-I 27 Jul 08:20:13 08:24:52 31° 294° (WNW) 08:29:29 437.470
NUDT-PHONESAT 27 Jul 08:32:13 08:33:46 12° 295° (WNW) 08:35:18 437.300
HO-68 27 Jul 08:41:44 08:48:55 80° 288° (WNW) 08:56:03 435.675
TIGRISAT 27 Jul 08:46:50 08:49:24 15° 63° (ENE) 08:51:56 435.000
PRISM 27 Jul 08:52:42 08:54:44 14° 63° (ENE) 08:56:46 437.425
AAUSAT CUBESAT 2 27 Jul 08:53:40 08:57:50 65° 101° (E) 09:01:59 437.432
UWE-3 27 Jul 09:06:54 09:11:06 88° 283° (WNW) 09:15:14 435.000/436.395/437.385
XW-2A 27 Jul 09:10:56 09:13:48 27° 289° (WNW) 09:16:39 145.665 - 145.685
ZACube-1 27 Jul 09:15:07 09:19:14 61° 101° (E) 09:23:19 437.345
M-CUBED/EXP-1 PRIME 27 Jul 09:33:17 09:36:15 22° 60° (ENE) 09:39:25 437.505
DELFI C3 27 Jul 09:34:59 09:37:33 16° 92° (E) 09:40:06 145.870
Oscar 11 27 Jul 09:36:45 09:41:04 73° 102° (ESE) 09:45:23 .
UNISAT 6 27 Jul 09:37:35 09:42:04 51° 73° (ENE) 09:46:29 437.425
FO-29 27 Jul 09:45:50 09:53:32 81° 256° (WSW) 10:01:28 435.910
CUTE 1.7 + AOD 2 27 Jul 09:47:57 09:49:11 11° 298° (WNW) 09:50:25 437.475
CUBEBUG 2 27 Jul 09:51:30 09:54:24 18° 295° (WNW) 09:57:15 437.445
AO-73 27 Jul 09:53:55 09:57:57 53° 286° (WNW) 10:01:57 145.935
SEEDS 27 Jul 09:54:31 09:56:44 14° 296° (WNW) 09:58:57 437.485
TIGRISAT 27 Jul 10:21:01 10:25:36 62° 259° (W) 10:30:07 435.000
PRISM 27 Jul 10:25:30 10:29:31 55° 259° (W) 10:33:36 437.425
AAUSAT CUBESAT 2 27 Jul 10:31:08 10:32:45 12° 297° (WNW) 10:34:21 437.432
HO-68 27 Jul 10:31:20 10:35:32 17° 308° (NW) 10:39:45 435.675
AIST 2D 27 Jul 10:32:30 10:35:01 19° 68° (ENE) 10:37:31 435.315
NO-84 27 Jul 10:47:12 10:50:12 89° 328° (NNW) 10:53:25 435.350 FM
ZACube-1 27 Jul 10:53:19 10:55:00 12° 297° (WNW) 10:56:40 437.345
LO-87 27 Jul 10:56:45 10:57:41 11° 90° (E) 10:58:36 145.935 - 145.965
EO-88 27 Jul 10:58:31 11:02:09 79° 284° (WNW) 11:05:47 145.990 - 145.960
DUCHIFAT 1 27 Jul 11:02:00 11:04:58 19° 65° (ENE) 11:07:57 145.980
M-CUBED/EXP-1 PRIME 27 Jul 11:07:17 11:10:30 28° 259° (W) 11:14:01 437.505
POLYITAN 1 27 Jul 11:07:40 11:11:15 27° 68° (ENE) 11:14:49 437.675
ESTCUBE 1 27 Jul 11:07:55 11:09:24 11° 89° (E) 11:10:52 437.505/2401.250
DELFI C3 27 Jul 11:08:43 11:12:28 39° 288° (WNW) 11:16:12 145.870
Oscar 11 27 Jul 11:15:09 11:16:36 12° 298° (WNW) 11:18:04 .
UNISAT 6 27 Jul 11:16:06 11:19:01 16° 268° (W) 11:21:54 437.425
BEESAT 3 27 Jul 11:16:13 11:18:28 15° 110° (ESE) 11:20:45 437.485
QB50P2 27 Jul 11:20:24 11:24:23 39° 71° (ENE) 11:28:22 145.880/145.840
NANOSAT C BR1 27 Jul 11:29:49 11:33:48 41° 72° (ENE) 11:37:48 145.865
EO-79 27 Jul 11:31:22 11:35:27 47° 73° (ENE) 11:39:34 145.935-145.965
FO-29 27 Jul 11:35:08 11:39:36 16° 275° (W) 11:44:08 435.910
AO-85 27 Jul 11:59:05 12:02:51 40° 118° (ESE) 12:06:32 145.980
BEESAT 2 27 Jul 12:01:50 12:04:10 15° 110° (ESE) 12:06:31 435.950
AIST 2D 27 Jul 12:05:09 12:08:03 24° 264° (W) 12:10:58 435.315
SPROUT 27 Jul 12:13:00 12:15:15 14° 91° (E) 12:17:30 437.525
Oscar 19 27 Jul 12:19:56 12:23:35 20° 62° (ENE) 12:27:13 437.125/150
NO-84 27 Jul 12:26:01 12:28:07 16° 340° (NNW) 12:30:19 435.350 FM
LO-87 27 Jul 12:27:54 12:31:22 46° 287° (WNW) 12:34:48 145.935 - 145.965
DUCHIFAT 1 27 Jul 12:36:22 12:40:21 39° 262° (W) 12:44:21 145.980
ESTCUBE 1 27 Jul 12:42:08 12:46:39 70° 286° (WNW) 12:51:10 437.505/2401.250
POLYITAN 1 27 Jul 12:43:18 12:46:56 27° 264° (W) 12:50:36 437.675
BEESAT 3 27 Jul 12:51:43 12:55:37 52° 307° (NW) 12:59:34 437.485
BUGSAT 1 27 Jul 12:54:13 12:58:28 88° 262° (W) 13:02:43 437.445
QB50P2 27 Jul 12:57:21 13:00:19 18° 267° (W) 13:03:17 145.880/145.840
PCSat 27 Jul 13:02:01 13:06:56 33° 50° (NE) 13:11:48 145.827
Gurwin Techsat 1B 27 Jul 13:05:31 13:10:14 34° 67° (ENE) 13:14:59 435.225
NANOSAT C BR1 27 Jul 13:06:50 13:09:41 17° 267° (W) 13:12:32 145.865
50 SAT 27 Jul 13:07:26 13:09:41 16° 94° (E) 13:11:55 437.505
EO-79 27 Jul 13:08:58 13:11:28 15° 268° (W) 13:13:59 145.935-145.965
DX 1 27 Jul 13:14:23 13:17:15 17° 93° (E) 13:20:04 434.975-435.025
VELOX 1 27 Jul 13:16:18 13:20:45 59° 101° (ESE) 13:25:07 145.980
SO-50 27 Jul 13:17:32 13:20:32 17° 39° (NE) 13:23:32 436.795
AO-7 27 Jul 13:30:32 13:36:20 21° 50° (NE) 13:42:07 .
BEESAT 2 27 Jul 13:37:36 13:41:30 50° 307° (NW) 13:45:27 435.950
AO-85 27 Jul 13:40:23 13:43:22 20° 315° (NW) 13:46:21 145.980
SPROUT 27 Jul 13:47:18 13:51:27 51° 287° (WNW) 13:55:33 437.525
UKube-1 27 Jul 13:50:51 13:54:33 27° 96° (E) 13:58:13 .
Oscar 19 27 Jul 13:57:29 14:02:28 54° 260° (W) 14:07:31 437.125/150
NO-84 27 Jul 14:06:19 14:06:48 10° 2° (N) 14:07:18 435.350 FM
RS-15 27 Jul 14:08:12 14:17:32 27° 101° (E) 14:26:58 29.354- 29.394
ITAMSAT 1 27 Jul 14:17:09 14:20:51 20° 62° (ENE) 14:24:33 435.822/435.867
50 SAT 27 Jul 14:39:28 14:42:27 27° 289° (WNW) 14:45:23 437.505
PCSat 27 Jul 14:45:21 14:50:22 39° 249° (WSW) 14:55:20 145.827
Gurwin Techsat 1B 27 Jul 14:45:26 14:50:09 32° 264° (W) 14:54:54 435.225
DX 1 27 Jul 14:49:27 14:53:38 45° 289° (WNW) 14:57:49 434.975-435.025
BEESAT 27 Jul 14:50:25 14:52:32 13° 90° (E) 14:54:39 436.000
O/OREOS (USA 219) 27 Jul 14:50:33 14:54:55 55° 108° (ESE) 14:59:18 437.305
VELOX 1 27 Jul 14:54:11 14:56:41 15° 298° (WNW) 14:59:11 145.980
SO-50 27 Jul 14:56:58 15:01:31 77° 238° (WSW) 15:06:06 436.795
ITUPSAT 1 27 Jul 15:04:35 15:07:48 18° 92° (E) 15:11:00 437.325
AO-7 27 Jul 15:19:33 15:27:55 85° 69° (ENE) 15:36:21 .
MOZHAYETS 4 27 Jul 15:26:02 15:29:39 23° 94° (E) 15:33:15
UKube-1 27 Jul 15:26:48 15:30:30 28° 292° (WNW) 15:34:10 .
NO-84 27 Jul 15:42:51 15:45:28 18° 23° (NNE) 15:48:13 435.350 FM
ITAMSAT 1 27 Jul 15:54:43 15:59:51 57° 259° (W) 16:05:02 435.822/435.867
CUBESAT XI-V 27 Jul 16:09:05 16:11:14 13° 90° (E) 16:13:22 437.345
RS-15 27 Jul 16:16:16 16:28:31 87° 301° (WNW) 16:40:59 29.354- 29.394
BEESAT 27 Jul 16:26:02 16:30:47 68° 286° (WNW) 16:35:29 436.000
O/OREOS (USA 219) 27 Jul 16:31:46 16:34:41 17° 307° (NW) 16:37:36 437.305
ITUPSAT 1 27 Jul 16:41:17 16:45:53 49° 289° (WNW) 16:50:27 437.325
DOVE 4 27 Jul 17:01:25 17:06:06 43° 70° (ENE) 17:11:00 437.250
MOZHAYETS 4 27 Jul 17:02:43 17:06:53 35° 290° (WNW) 17:11:01
XW-2D 27 Jul 17:13:14 17:15:45 17° 67° (ENE) 17:18:15 145.860 - 145.880
AO-7 27 Jul 17:15:44 17:21:35 21° 269° (W) 17:27:29 .
NO-84 27 Jul 17:19:36 17:23:23 79° 39° (NE) 17:27:29 435.350 FM
XW-2B 27 Jul 17:22:58 17:25:50 21° 68° (ENE) 17:28:43 145.730 - 145.750
KKS-1 27 Jul 17:23:14 17:27:25 38° 98° (E) 17:31:35 437.445
YUBILEINY 27 Jul 17:24:04 17:30:24 23° 79° (E) 17:36:44 435.215
HO-68 27 Jul 17:26:25 17:30:40 17° 52° (NE) 17:34:55 435.675
NUDT-PHONESAT 27 Jul 17:36:42 17:39:37 23° 69° (ENE) 17:42:31 437.300
XW-2C 27 Jul 17:39:51 17:43:15 34° 71° (ENE) 17:46:39 145.795 - 145.815
CUBESAT XI-V 27 Jul 17:44:23 17:49:01 66° 286° (WNW) 17:53:40 437.345
STARS 27 Jul 17:45:16 17:49:03 27° 96° (E) 17:52:47 437.465
KAITUO 1B 27 Jul 17:54:44 17:58:10 38° 72° (ENE) 18:01:36 145.475/437.950
CUTE-I 27 Jul 18:02:05 18:07:22 62° 72° (ENE) 18:12:41 437.470
LilacSat-2 27 Jul 18:06:09 18:09:55 79° 76° (ENE) 18:13:41 437.200
XW-2F 27 Jul 18:14:58 18:18:42 90° 284° (WNW) 18:22:27 145.980 - 146.000
RS-15 27 Jul 18:32:03 18:42:59 35° 330° (NNW) 18:53:56 29.354- 29.394
DOVE 4 27 Jul 18:40:01 18:43:56 23° 268° (W) 18:48:01 437.250
Tancredo 1 27 Jul 18:45:18 18:47:44 24° 136° (SE) 18:50:10 437.200
XW-2D 27 Jul 18:46:17 18:49:41 32° 263° (W) 18:53:05 145.860 - 145.880
XW-2B 27 Jul 18:56:43 18:59:54 26° 265° (W) 19:03:04 145.730 - 145.750
NO-84 27 Jul 18:58:20 19:00:31 14° 235° (SW) 19:02:46 435.350 FM
KKS-1 27 Jul 19:00:21 19:03:43 21° 295° (WNW) 19:07:04 437.445
CUTE 1.7 + AOD 2 27 Jul 19:02:28 19:06:32 52° 73° (ENE) 19:10:37 437.475
ISS 27 Jul 19:04:38 19:06:27 14° 131° (SE) 19:08:17 437.550
SEEDS 27 Jul 19:09:16 19:13:07 39° 71° (ENE) 19:17:00 437.485
NUDT-PHONESAT 27 Jul 19:10:27 19:13:24 23° 265° (W) 19:16:23 437.300
CUBEBUG 2 27 Jul 19:11:59 19:16:16 37° 71° (ENE) 19:20:29 437.445
XW-2C 27 Jul 19:15:10 19:17:32 16° 267° (W) 19:19:55 145.795 - 145.815
AO-73 27 Jul 19:16:04 19:17:47 12° 63° (ENE) 19:19:29 145.935
